ETH737 LSZH-LIMC

Flight info

Callsign ETH737
Flight time 0h 31m
Altitude 19000
Route VEBIT4N/32 VEBIT T53 GERSA N850 DEGAD Z424 RIXUV
Aircraft B77L/H-SDE1E2E3FGHIJ2J3J4J5M1RWXY/LB1D1

Departure

Time 2026-02-17 15:43
Airport Zürich Airport (LSZH)

Arrival

Time 2026-02-17 16:14
Airport Milan Malpensa International Airport (LIMC)
Time Latitude Longitude Altitude Speed Heading
2026-02-17 15:07 47.46036 8.55645 1430 ft 0 kts
2026-02-17 15:34 47.46030 8.55644 1430 ft 2 kts
2026-02-17 15:34 47.46011 8.55641 1430 ft 3 kts
2026-02-17 15:34 47.45994 8.55639 1430 ft 2 kts
2026-02-17 15:35 47.45965 8.55623 1430 ft 3 kts 62°
2026-02-17 15:35 47.45960 8.55600 1430 ft 3 kts 91°
2026-02-17 15:35 47.45962 8.55571 1430 ft 2 kts 97°
2026-02-17 15:35 47.45963 8.55557 1430 ft 1 kts 96°
2026-02-17 15:36 47.45963 8.55556 1430 ft 0 kts 96°
2026-02-17 15:37 47.45963 8.55557 1430 ft 0 kts 96°
2026-02-17 15:38 47.45962 8.55562 1430 ft 4 kts 96°
2026-02-17 15:38 47.45956 8.55646 1430 ft 9 kts 96°
2026-02-17 15:39 47.45942 8.55842 1430 ft 10 kts 96°
2026-02-17 15:39 47.45934 8.55942 1430 ft 9 kts 96°
2026-02-17 15:39 47.45927 8.56038 1430 ft 10 kts 96°
2026-02-17 15:39 47.45921 8.56136 1430 ft 10 kts 96°
2026-02-17 15:40 47.45913 8.56242 1430 ft 10 kts 96°
2026-02-17 15:40 47.45940 8.56311 1430 ft 8 kts 16°
2026-02-17 15:40 47.45988 8.56322 1430 ft 6 kts
2026-02-17 15:40 47.46018 8.56328 1430 ft 4 kts
2026-02-17 15:41 47.46049 8.56334 1430 ft 6 kts
2026-02-17 15:41 47.46124 8.56347 1430 ft 15 kts
2026-02-17 15:41 47.46223 8.56324 1430 ft 12 kts 325°
2026-02-17 15:41 47.46295 8.56228 1430 ft 28 kts 317°
2026-02-17 15:42 47.46568 8.55851 1430 ft 87 kts 317°
2026-02-17 15:42 47.47174 8.55030 1432 ft 151 kts 316°
2026-02-17 15:42 47.48050 8.53860 1869 ft 176 kts 316°
2026-02-17 15:43 47.51601 8.50729 4086 ft 178 kts 329°
2026-02-17 15:43 47.52520 8.49780 4836 ft 161 kts 313°
2026-02-17 15:44 47.53127 8.48343 5258 ft 166 kts 293°
2026-02-17 15:44 47.53281 8.46574 5179 ft 183 kts 270°
2026-02-17 15:44 47.53039 8.44651 5144 ft 199 kts 260°
2026-02-17 15:44 47.52665 8.42563 5033 ft 219 kts 257°
2026-02-17 15:45 47.52055 8.40424 5020 ft 235 kts 238°
2026-02-17 15:45 47.50777 8.38888 5024 ft 256 kts 210°
2026-02-17 15:45 47.48970 8.38375 5575 ft 273 kts 186°
2026-02-17 15:45 47.47059 8.38716 6832 ft 277 kts 173°
2026-02-17 15:46 47.45175 8.39340 7879 ft 284 kts 172°
2026-02-17 15:46 47.43204 8.40002 8929 ft 290 kts 172°
2026-02-17 15:46 47.41260 8.40665 9928 ft 295 kts 172°
2026-02-17 15:47 47.37072 8.42089 11521 ft 327 kts 172°
2026-02-17 15:47 47.34763 8.42874 12311 ft 347 kts 172°
2026-02-17 15:47 47.32335 8.43703 12994 ft 371 kts 172°
2026-02-17 15:47 47.29753 8.44578 13715 ft 391 kts 172°
2026-02-17 15:48 47.27041 8.45491 14509 ft 409 kts 172°
2026-02-17 15:48 47.24214 8.46439 15357 ft 423 kts 172°
2026-02-17 15:48 47.21317 8.47408 16272 ft 434 kts 172°
2026-02-17 15:48 47.18317 8.48411 17195 ft 445 kts 172°
2026-02-17 15:49 47.15310 8.49417 18048 ft 457 kts 172°
2026-02-17 15:49 47.12170 8.50465 18741 ft 464 kts 172°
2026-02-17 15:49 47.09001 8.51523 18965 ft 470 kts 172°
2026-02-17 15:49 47.05786 8.52592 18954 ft 476 kts 172°
2026-02-17 15:50 47.02548 8.53513 18961 ft 474 kts 176°
2026-02-17 15:50 46.99265 8.54149 18964 ft 473 kts 179°
2026-02-17 15:50 46.92738 8.54955 18961 ft 471 kts 181°
2026-02-17 15:51 46.89456 8.55341 18960 ft 472 kts 181°
2026-02-17 15:51 46.86227 8.55772 18957 ft 473 kts 180°
2026-02-17 15:51 46.82955 8.56238 18955 ft 473 kts 180°
2026-02-17 15:51 46.79677 8.56707 18953 ft 473 kts 180°
2026-02-17 15:52 46.76390 8.57177 18951 ft 473 kts 180°
2026-02-17 15:52 46.73113 8.57645 18950 ft 474 kts 180°
2026-02-17 15:52 46.69824 8.58113 18953 ft 474 kts 180°
2026-02-17 15:52 46.66546 8.58579 18949 ft 475 kts 180°
2026-02-17 15:53 46.63242 8.59050 18947 ft 475 kts 180°
2026-02-17 15:53 46.59991 8.59513 18941 ft 476 kts 180°
2026-02-17 15:53 46.56709 8.59980 18937 ft 476 kts 180°
2026-02-17 15:53 46.53401 8.60450 18931 ft 475 kts 180°
2026-02-17 15:54 46.50116 8.60914 18925 ft 475 kts 180°
2026-02-17 15:54 46.46839 8.61096 18922 ft 466 kts 189°
2026-02-17 15:54 46.40727 8.58910 18911 ft 446 kts 211°
2026-02-17 15:55 46.38002 8.56958 18907 ft 438 kts 218°
2026-02-17 15:55 46.35382 8.54633 18902 ft 435 kts 222°
2026-02-17 15:55 46.32900 8.52241 18896 ft 436 kts 222°
2026-02-17 15:55 46.30286 8.49997 18899 ft 445 kts 215°
2026-02-17 15:56 46.27328 8.48431 18902 ft 459 kts 202°
2026-02-17 15:56 46.24136 8.47722 18902 ft 469 kts 191°
2026-02-17 15:56 46.20862 8.47810 18904 ft 476 kts 181°
2026-02-17 15:56 46.17570 8.48447 18898 ft 478 kts 176°
2026-02-17 15:57 46.14276 8.49109 18877 ft 477 kts 178°
2026-02-17 15:57 46.11036 8.49908 18819 ft 476 kts 172°
2026-02-17 15:57 46.07851 8.51137 18406 ft 474 kts 166°
2026-02-17 15:57 46.04752 8.52717 17914 ft 472 kts 162°
2026-02-17 15:58 46.01708 8.54474 17412 ft 470 kts 161°
2026-02-17 15:58 45.98696 8.56183 16931 ft 463 kts 161°
2026-02-17 15:58 45.92760 8.59467 15931 ft 450 kts 158°
2026-02-17 15:59 45.89973 8.61434 15442 ft 445 kts 154°
2026-02-17 15:59 45.87321 8.63673 14960 ft 439 kts 147°
2026-02-17 15:59 45.84892 8.66268 14468 ft 433 kts 141°
2026-02-17 15:59 45.83395 8.68098 14142 ft 428 kts 139°
2026-02-17 16:00 45.80437 8.71785 13505 ft 420 kts 140°
2026-02-17 16:00 45.78196 8.74400 13008 ft 413 kts 142°
2026-02-17 16:00 45.76632 8.76039 12700 ft 408 kts 146°
2026-02-17 16:00 45.73506 8.78790 12286 ft 393 kts 151°
2026-02-17 16:01 45.71926 8.80011 12077 ft 386 kts 153°
2026-02-17 16:01 45.68800 8.82309 11646 ft 374 kts 153°
2026-02-17 16:01 45.66504 8.84042 11324 ft 366 kts 152°
2026-02-17 16:01 45.65023 8.85124 11111 ft 361 kts 155°
2026-02-17 16:02 45.62048 8.87121 10883 ft 344 kts 156°
2026-02-17 16:02 45.59875 8.88278 10709 ft 333 kts 164°
2026-02-17 16:02 45.55478 8.89513 10344 ft 307 kts 172°
2026-02-17 16:03 45.53419 8.90004 10096 ft 297 kts 171°
2026-02-17 16:03 45.51387 8.90526 9705 ft 298 kts 171°
2026-02-17 16:03 45.50018 8.90886 9372 ft 300 kts 170°
2026-02-17 16:03 45.47991 8.91437 8987 ft 292 kts 170°
2026-02-17 16:04 45.46046 8.91968 8708 ft 278 kts 170°
2026-02-17 16:04 45.44190 8.92472 8439 ft 264 kts 170°
2026-02-17 16:04 45.41866 8.93102 7939 ft 252 kts 170°
2026-02-17 16:04 45.40154 8.93567 7455 ft 250 kts 170°
2026-02-17 16:05 45.39009 8.93878 7162 ft 246 kts 170°
2026-02-17 16:05 45.37361 8.94326 6743 ft 240 kts 169°
2026-02-17 16:05 45.35726 8.94791 6160 ft 241 kts 169°
2026-02-17 16:05 45.34040 8.95112 5670 ft 246 kts 177°
2026-02-17 16:06 45.32374 8.94882 5424 ft 239 kts 198°
2026-02-17 16:06 45.31060 8.93582 5241 ft 228 kts 229°
2026-02-17 16:06 45.30916 8.88873 4718 ft 213 kts 295°
2026-02-17 16:07 45.31386 8.87647 4547 ft 211 kts 297°
2026-02-17 16:07 45.32098 8.85833 4283 ft 210 kts 299°
2026-02-17 16:07 45.32826 8.84055 4035 ft 208 kts 301°
2026-02-17 16:07 45.33630 8.82343 3784 ft 207 kts 307°
2026-02-17 16:08 45.34748 8.81099 3570 ft 207 kts 333°
2026-02-17 16:08 45.37500 8.80191 3313 ft 199 kts 350°
2026-02-17 16:08 45.38852 8.79897 3187 ft 197 kts 350°
2026-02-17 16:09 45.40188 8.79576 3069 ft 197 kts 349°
2026-02-17 16:09 45.41534 8.79229 3007 ft 197 kts 349°
2026-02-17 16:09 45.42876 8.78873 2991 ft 196 kts 348°
2026-02-17 16:09 45.44194 8.78516 2988 ft 188 kts 348°
2026-02-17 16:10 45.45449 8.78174 3010 ft 181 kts 348°
2026-02-17 16:10 45.46683 8.77837 3021 ft 178 kts 348°
2026-02-17 16:10 45.49082 8.77179 2997 ft 175 kts 348°
2026-02-17 16:11 45.50261 8.76855 2995 ft 170 kts 348°
2026-02-17 16:11 45.51373 8.76549 2885 ft 157 kts 348°
2026-02-17 16:11 45.52422 8.76264 2696 ft 151 kts 348°
2026-02-17 16:11 45.53444 8.75988 2445 ft 153 kts 348°
2026-02-17 16:12 45.54497 8.75721 2182 ft 154 kts 349°
2026-02-17 16:12 45.55549 8.75427 1951 ft 151 kts 348°
2026-02-17 16:12 45.56526 8.75131 1713 ft 141 kts 348°
2026-02-17 16:12 45.57499 8.74866 1544 ft 152 kts 350°
2026-02-17 16:13 45.58540 8.74580 1365 ft 153 kts 351°
2026-02-17 16:13 45.59583 8.74294 1161 ft 148 kts 350°
2026-02-17 16:13 45.60541 8.74027 984 ft 141 kts 350°
2026-02-17 16:13 45.61499 8.73761 846 ft 140 kts 350°
2026-02-17 16:14 45.62419 8.73510 783 ft 125 kts 351°
2026-02-17 16:14 45.63063 8.73339 781 ft 64 kts 346°
2026-02-17 16:14 45.63623 8.73165 781 ft 23 kts 332°
2026-02-17 16:15 45.63729 8.73047 781 ft 16 kts 320°
2026-02-17 16:15 45.63797 8.72948 781 ft 12 kts 307°
2026-02-17 16:15 45.63838 8.72865 781 ft 9 kts 303°
2026-02-17 16:15 45.63889 8.72753 781 ft 15 kts 304°
2026-02-17 16:16 45.63941 8.72645 781 ft 12 kts 303°
2026-02-17 16:16 45.63958 8.72553 781 ft 8 kts 264°
2026-02-17 16:16 45.63949 8.72487 781 ft 6 kts 258°
2026-02-17 16:16 45.63943 8.72444 781 ft 4 kts 259°
2026-02-17 16:17 45.63933 8.72373 781 ft 15 kts 259°
2026-02-17 16:17 45.63919 8.72165 781 ft 27 kts 268°
2026-02-17 16:17 45.63904 8.71964 781 ft 15 kts 259°
2026-02-17 16:17 45.63888 8.71846 781 ft 8 kts 238°
2026-02-17 16:18 45.63827 8.71806 781 ft 16 kts 194°
2026-02-17 16:18 45.63699 8.71844 781 ft 22 kts 168°
2026-02-17 16:18 45.63441 8.71913 781 ft 16 kts 170°
2026-02-17 16:19 45.63339 8.71940 781 ft 13 kts 169°
2026-02-17 16:19 45.63256 8.71964 781 ft 11 kts 168°